Time,TemperatureF,DewpointF,PressureIn,WindDirection,WindDirectionDegrees,WindSpeedMPH,WindSpeedGustMPH,Humidity,HourlyPrecipIn,Conditions,Clouds,dailyrainin,SoftwareType,DateUTC
2013-03-23 00:11:00,46.1,45.0,29.84,NNE,17,4.0,6.0,95,0.00,,,0.00,weatherlink.com 1.10,2013-03-23 05:11:00,
2013-03-23 00:26:00,46.0,45.0,29.83,NE,51,1.0,5.0,95,0.00,,,0.00,weatherlink.com 1.10,2013-03-23 05:26:00,
2013-03-23 00:41:00,46.0,45.0,29.83,East,84,1.0,7.0,95,0.00,,,0.00,weatherlink.com 1.10,2013-03-23 05:41:00,
2013-03-23 00:57:00,46.1,45.0,29.83,ENE,63,2.0,4.0,96,0.00,,,0.00,weatherlink.com 1.10,2013-03-23 05:57:00,
2013-03-23 01:12:00,46.0,45.0,29.81,East,87,0.0,3.0,96,0.00,,,0.00,weatherlink.com 1.10,2013-03-23 06:12:00,
2013-03-23 01:27:00,46.0,45.0,29.80,ENE,70,2.0,6.0,96,0.00,,,0.00,weatherlink.com 1.10,2013-03-23 06:27:00,
2013-03-23 01:42:00,46.1,45.0,29.81,East,92,1.0,5.0,96,0.00,,,0.00,weatherlink.com 1.10,2013-03-23 06:42:00,
2013-03-23 01:57:00,46.2,45.0,29.80,ENE,68,0.0,6.0,96,0.00,,,0.00,weatherlink.com 1.10,2013-03-23 06:57:00,
2013-03-23 02:12:00,46.3,45.0,29.80,NE,50,1.0,4.0,96,0.00,,,0.00,weatherlink.com 1.10,2013-03-23 07:12:00,
2013-03-23 02:27:00,46.3,45.0,29.81,ESE,108,1.0,4.0,96,0.00,,,0.00,weatherlink.com 1.10,2013-03-23 07:27:00,
2013-03-23 02:42:00,46.4,45.0,29.81,ESE,103,0.0,3.0,96,0.00,,,0.00,weatherlink.com 1.10,2013-03-23 07:42:00,
2013-03-23 02:57:00,46.5,46.0,29.80,ENE,70,2.0,3.0,96,0.00,,,0.00,weatherlink.com 1.10,2013-03-23 07:57:00,
2013-03-23 03:12:00,46.6,46.0,29.80,ENE,65,0.0,3.0,96,0.00,,,0.00,weatherlink.com 1.10,2013-03-23 08:12:00,
2013-03-23 03:27:00,46.5,46.0,29.80,NNE,25,1.0,5.0,96,0.00,,,0.00,weatherlink.com 1.10,2013-03-23 08:27:00,
2013-03-23 03:42:00,46.5,46.0,29.80,ENE,74,0.0,3.0,96,0.00,,,0.00,weatherlink.com 1.10,2013-03-23 08:42:00,
2013-03-23 03:57:00,46.5,46.0,29.79,ENE,62,2.0,5.0,96,0.00,,,0.00,weatherlink.com 1.10,2013-03-23 08:57:00,
2013-03-23 04:12:00,46.7,46.0,29.80,ENE,63,2.0,5.0,96,0.00,,,0.00,weatherlink.com 1.10,2013-03-23 09:12:00,
2013-03-23 04:27:00,46.6,46.0,29.79,NNE,27,3.0,7.0,96,0.00,,,0.00,weatherlink.com 1.10,2013-03-23 09:27:00,
2013-03-23 04:42:00,46.5,46.0,29.80,NNW,339,7.0,7.0,96,0.00,,,0.00,weatherlink.com 1.10,2013-03-23 09:42:00,
2013-03-23 04:57:00,46.5,46.0,29.80,NE,54,5.0,8.0,96,0.00,,,0.00,weatherlink.com 1.10,2013-03-23 09:57:00,
2013-03-23 05:12:00,46.4,45.0,29.80,ENE,61,7.0,8.0,96,0.00,,,0.00,weatherlink.com 1.10,2013-03-23 10:12:00,
2013-03-23 05:27:00,46.3,45.0,29.80,NE,39,0.0,7.0,96,0.00,,,0.00,weatherlink.com 1.10,2013-03-23 10:27:00,
2013-03-23 05:42:00,46.3,46.0,29.81,NE,56,3.0,9.0,97,0.00,,,0.00,weatherlink.com 1.10,2013-03-23 10:42:00,
2013-03-23 05:57:00,46.0,45.0,29.81,North,359,3.0,6.0,96,0.00,,,0.00,weatherlink.com 1.10,2013-03-23 10:57:00,
2013-03-23 06:12:00,45.9,45.0,29.82,ENE,61,1.0,9.0,97,0.00,,,0.00,weatherlink.com 1.10,2013-03-23 11:12:00,
2013-03-23 06:27:00,45.8,45.0,29.82,NE,50,3.0,6.0,97,0.00,,,0.00,weatherlink.com 1.10,2013-03-23 11:27:00,
2013-03-23 06:42:00,45.8,45.0,29.83,NNE,16,2.0,5.0,97,0.00,,,0.00,weatherlink.com 1.10,2013-03-23 11:42:00,
2013-03-23 06:57:00,45.8,45.0,29.83,ENE,72,1.0,5.0,97,0.00,,,0.00,weatherlink.com 1.10,2013-03-23 11:57:00,
2013-03-23 07:12:00,45.7,45.0,29.83,NE,41,4.0,5.0,97,0.00,,,0.00,weatherlink.com 1.10,2013-03-23 12:12:00,
2013-03-23 07:57:00,45.9,45.0,29.80,South,170,2.0,6.0,97,0.00,,,0.00,weatherlink.com 1.10,2013-03-23 12:57:00,
2013-03-23 08:12:00,45.8,45.0,29.81,East,85,1.0,7.0,97,0.01,,,0.01,weatherlink.com 1.10,2013-03-23 13:12:00,
2013-03-23 08:29:00,45.9,45.0,29.80,East,95,1.0,8.0,97,0.01,,,0.01,weatherlink.com 1.10,2013-03-23 13:29:00,
2013-03-23 08:42:00,46.0,45.0,29.82,NNW,338,1.0,5.0,97,0.01,,,0.01,weatherlink.com 1.10,2013-03-23 13:42:00,
2013-03-23 09:13:00,44.1,43.0,29.86,NNE,17,7.0,11.0,96,0.88,,,0.89,weatherlink.com 1.10,2013-03-23 14:13:00,
2013-03-23 09:28:00,44.7,44.0,29.87,West,260,4.0,9.0,97,0.89,,,0.90,weatherlink.com 1.10,2013-03-23 14:28:00,
2013-03-23 09:43:00,45.4,45.0,29.84,SE,127,2.0,7.0,97,0.89,,,0.90,weatherlink.com 1.10,2013-03-23 14:43:00,
2013-03-23 09:58:00,46.1,45.0,29.82,SSE,147,6.0,7.0,97,0.83,,,0.90,weatherlink.com 1.10,2013-03-23 14:58:00,
2013-03-23 10:13:00,47.1,46.0,29.81,ESE,114,3.0,7.0,97,0.02,,,0.91,weatherlink.com 1.10,2013-03-23 15:13:00,
2013-03-23 10:28:00,48.6,48.0,29.79,SE,143,9.0,13.0,97,0.01,,,0.91,weatherlink.com 1.10,2013-03-23 15:28:00,
2013-03-23 10:43:00,49.9,49.0,29.78,SE,127,4.0,11.0,97,0.01,,,0.91,weatherlink.com 1.10,2013-03-23 15:43:00,
2013-03-23 10:58:00,50.5,49.0,29.76,South,187,9.0,12.0,96,0.01,,,0.91,weatherlink.com 1.10,2013-03-23 15:58:00,
2013-03-23 11:13:00,51.2,50.0,29.75,ESE,115,0.0,17.0,96,0.00,,,0.91,weatherlink.com 1.10,2013-03-23 16:13:00,
2013-03-23 11:28:00,52.6,52.0,29.75,SSE,167,4.0,9.0,96,0.00,,,0.91,weatherlink.com 1.10,2013-03-23 16:28:00,
2013-03-23 11:43:00,54.3,53.0,29.75,SE,129,3.0,11.0,94,0.00,,,0.91,weatherlink.com 1.10,2013-03-23 16:43:00,
2013-03-23 11:58:00,55.3,53.0,29.76,SSE,163,2.0,8.0,93,0.00,,,0.91,weatherlink.com 1.10,2013-03-23 16:58:00,
2013-03-23 12:13:00,55.6,53.0,29.75,SSE,158,1.0,6.0,92,0.00,,,0.91,weatherlink.com 1.10,2013-03-23 17:13:00,
2013-03-23 12:28:00,56.1,54.0,29.76,NE,34,1.0,4.0,91,0.00,,,0.91,weatherlink.com 1.10,2013-03-23 17:28:00,
2013-03-23 12:44:00,56.1,53.0,29.76,North,354,0.0,5.0,90,0.01,,,0.92,weatherlink.com 1.10,2013-03-23 17:44:00,
2013-03-23 12:58:00,55.4,54.0,29.76,NNW,329,0.0,5.0,93,0.12,,,1.03,weatherlink.com 1.10,2013-03-23 17:58:00,
2013-03-23 13:13:00,54.9,53.0,29.75,NNE,16,0.0,3.0,94,0.12,,,1.03,weatherlink.com 1.10,2013-03-23 18:13:00,
2013-03-23 13:28:00,54.9,53.0,29.75,NNW,345,1.0,7.0,93,0.12,,,1.03,weatherlink.com 1.10,2013-03-23 18:28:00,
2013-03-23 13:44:00,54.7,53.0,29.73,ENE,57,3.0,8.0,92,0.10,,,1.03,weatherlink.com 1.10,2013-03-23 18:44:00,
2013-03-23 13:59:00,54.9,53.0,29.73,NE,55,0.0,6.0,93,0.00,,,1.03,weatherlink.com 1.10,2013-03-23 18:59:00,
2013-03-23 14:14:00,55.1,53.0,29.72,ENE,71,2.0,4.0,92,0.00,,,1.03,weatherlink.com 1.10,2013-03-23 19:14:00,
2013-03-23 14:29:00,55.7,54.0,29.70,ESE,120,2.0,4.0,92,0.00,,,1.03,weatherlink.com 1.10,2013-03-23 19:29:00,
2013-03-23 14:44:00,56.1,53.0,29.70,NNW,347,2.0,5.0,90,0.00,,,1.03,weatherlink.com 1.10,2013-03-23 19:44:00,
2013-03-23 14:59:00,55.0,52.0,29.69,North,7,3.0,6.0,90,0.00,,,1.03,weatherlink.com 1.10,2013-03-23 19:59:00,
2013-03-23 15:14:00,54.8,52.0,29.69,NE,48,3.0,5.0,91,0.00,,,1.03,weatherlink.com 1.10,2013-03-23 20:14:00,
2013-03-23 15:29:00,54.8,52.0,29.69,North,8,7.0,7.0,90,0.00,,,1.03,weatherlink.com 1.10,2013-03-23 20:29:00,
2013-03-23 15:44:00,54.5,51.0,29.70,NNE,13,4.0,6.0,89,0.00,,,1.03,weatherlink.com 1.10,2013-03-23 20:44:00,
2013-03-23 15:59:00,54.1,51.0,29.70,NNE,16,1.0,6.0,90,0.00,,,1.03,weatherlink.com 1.10,2013-03-23 20:59:00,
2013-03-23 16:14:00,53.9,51.0,29.70,North,9,3.0,5.0,90,0.00,,,1.03,weatherlink.com 1.10,2013-03-23 21:14:00,
2013-03-23 16:29:00,53.7,51.0,29.70,North,11,5.0,7.0,91,0.01,,,1.04,weatherlink.com 1.10,2013-03-23 21:29:00,
2013-03-23 16:44:00,53.4,51.0,29.70,NNE,12,0.0,7.0,91,0.01,,,1.04,weatherlink.com 1.10,2013-03-23 21:44:00,
2013-03-23 16:59:00,53.5,51.0,29.70,North,359,2.0,6.0,90,0.01,,,1.04,weatherlink.com 1.10,2013-03-23 21:59:00,
2013-03-23 17:14:00,53.0,50.0,29.70,NE,34,5.0,9.0,90,0.01,,,1.04,weatherlink.com 1.10,2013-03-23 22:14:00,
2013-03-23 17:29:00,52.8,50.0,29.70,NNE,32,3.0,5.0,91,0.00,,,1.04,weatherlink.com 1.10,2013-03-23 22:29:00,
2013-03-23 17:44:00,52.3,50.0,29.69,NE,37,3.0,9.0,91,0.00,,,1.04,weatherlink.com 1.10,2013-03-23 22:44:00,
2013-03-23 17:59:00,51.6,49.0,29.70,NE,53,3.0,9.0,92,0.00,,,1.04,weatherlink.com 1.10,2013-03-23 22:59:00,
2013-03-23 18:14:00,51.3,49.0,29.70,ENE,60,0.0,6.0,92,0.00,,,1.04,weatherlink.com 1.10,2013-03-23 23:14:00,
2013-03-23 18:29:00,51.2,49.0,29.70,NNE,25,0.0,5.0,93,0.00,,,1.04,weatherlink.com 1.10,2013-03-23 23:29:00,
2013-03-23 18:44:00,51.0,49.0,29.70,NE,36,0.0,4.0,93,0.00,,,1.04,weatherlink.com 1.10,2013-03-23 23:44:00,
2013-03-23 18:59:00,50.9,49.0,29.72,NNW,341,4.0,5.0,93,0.00,,,1.04,weatherlink.com 1.10,2013-03-23 23:59:00,
2013-03-23 19:14:00,50.8,49.0,29.71,North,11,0.0,5.0,93,0.00,,,1.04,weatherlink.com 1.10,2013-03-24 00:14:00,
2013-03-23 19:29:00,50.8,49.0,29.71,ENE,78,0.0,3.0,93,0.00,,,1.04,weatherlink.com 1.10,2013-03-24 00:29:00,
2013-03-23 19:44:00,50.8,49.0,29.71,ENE,60,0.0,1.0,93,0.00,,,1.04,weatherlink.com 1.10,2013-03-24 00:44:00,
2013-03-23 19:59:00,50.9,49.0,29.70,East,84,0.0,1.0,93,0.00,,,1.04,weatherlink.com 1.10,2013-03-24 00:59:00,
2013-03-23 20:14:00,51.0,49.0,29.71,NE,53,0.0,1.0,93,0.00,,,1.04,weatherlink.com 1.10,2013-03-24 01:14:00,
2013-03-23 20:29:00,51.0,49.0,29.71,ENE,78,0.0,1.0,93,0.00,,,1.04,weatherlink.com 1.10,2013-03-24 01:29:00,
2013-03-23 20:44:00,51.0,49.0,29.70,North,360,0.0,3.0,93,0.00,,,1.04,weatherlink.com 1.10,2013-03-24 01:44:00,
2013-03-23 20:59:00,51.1,49.0,29.70,East,79,0.0,1.0,93,0.00,,,1.04,weatherlink.com 1.10,2013-03-24 01:59:00,
2013-03-23 21:14:00,51.2,49.0,29.70,ESE,114,0.0,2.0,93,0.00,,,1.04,weatherlink.com 1.10,2013-03-24 02:14:00,
2013-03-23 21:29:00,51.1,49.0,29.71,East,86,0.0,1.0,93,0.00,,,1.04,weatherlink.com 1.10,2013-03-24 02:29:00,
2013-03-23 21:44:00,51.0,49.0,29.71,ENE,59,0.0,1.0,93,0.00,,,1.04,weatherlink.com 1.10,2013-03-24 02:44:00,
2013-03-23 21:59:00,51.0,49.0,29.71,East,84,0.0,3.0,93,0.00,,,1.04,weatherlink.com 1.10,2013-03-24 02:59:00,
2013-03-23 22:14:00,50.9,49.0,29.69,ENE,63,0.0,1.0,93,0.00,,,1.04,weatherlink.com 1.10,2013-03-24 03:14:00,
2013-03-23 22:29:00,50.8,49.0,29.68,ESE,112,1.0,1.0,93,0.00,,,1.04,weatherlink.com 1.10,2013-03-24 03:29:00,
2013-03-23 22:44:00,50.6,49.0,29.67,SE,142,1.0,9.0,94,0.00,,,1.04,weatherlink.com 1.10,2013-03-24 03:44:00,
2013-03-23 22:59:00,50.2,49.0,29.67,East,96,0.0,1.0,94,0.00,,,1.04,weatherlink.com 1.10,2013-03-24 03:59:00,
2013-03-23 23:14:00,50.2,49.0,29.68,SSW,197,0.0,1.0,94,0.00,,,1.04,weatherlink.com 1.10,2013-03-24 04:14:00,
2013-03-23 23:29:00,50.1,49.0,29.69,NE,56,0.0,1.0,94,0.00,,,1.04,weatherlink.com 1.10,2013-03-24 04:29:00,
2013-03-23 23:59:00,50.2,49.0,29.77,NE,38,1.0,14.0,95,0.00,,,1.04,weatherlink.com 1.10,2013-03-24 04:59:00,